Home > Weather > Sonneberg > Past weeks

Flag for Germany Weather for the Past 2 Weeks in Sonneberg, Thuringia, Germany

Now
64 °F

Passing clouds.


Feels Like: 64 °F
Forecast: 47 / 64 °F
Wind: 13 mph from East

Location: Hof Airport

Current Time: May 6, 2016 at 1:18:03 PM

Latest Report: May 6, 2016 at 12:50 PM


Visibility: N/A

Pressure: 30.09 "Hg

Humidity: 37%

Dew Point: 37 °F

Location of SonnebergLocation

Historic Weather in Sonneberg — Graph

°F

Sonneberg Temperature Yesterday

Maximum temperature yesterday: 61 °F (at 2:20 PM)
Minimum temperature yesterday: 48 °F (at 9:20 AM)
Average temperature yesterday: 57 °F

High & Low Weather Summary for the Past Weeks

 TemperatureHumidityPressure
High63 °F (Apr 30, 2:50 PM)93% (Apr 23, 4:50 PM)30.33 "Hg (Apr 23, 4:50 PM)
Low30 °F (Apr 25, 6:50 AM)20% (Apr 21, 2:20 PM)29.45 "Hg (Apr 26, 6:20 AM)
Average46 °F61%29.99 "Hg
* Reported Apr 21 11:20 AM — May 6 11:50 AM, Sonneberg, Weather by CustomWeather, © 2016

Note: Actual official high and low records may vary slightly from our data, if they occured in-between our weather recording intervals... More about our weather records

Advertising

Sonneberg Weather History for the Previous 24 Hours

Scroll right to see more
 ConditionsComfort  
Time TempWeatherWind HumidityBarometerVisibility
11:50 AM
Fri, May 6
63 °FPassing clouds.12 mph45%30.09 "HgN/A
11:20 AM63 °FPassing clouds.12 mph45%30.09 "HgN/A
10:50 AM61 °FPassing clouds.10 mph48%30.12 "HgN/A
10:20 AM61 °FPassing clouds.12 mph52%30.12 "HgN/A
9:50 AM59 °FSunny.14 mph55%30.12 "Hg10 mi
9:20 AM57 °FSunny.13 mph59%30.12 "Hg10 mi
8:50 AM55 °FPassing clouds.9 mph63%30.12 "HgN/A
8:20 AM54 °FPassing clouds.5 mph72%30.12 "HgN/A
7:50 AM52 °FPassing clouds.3 mph77%30.12 "HgN/A
7:20 AM50 °FSunny.No wind76%30.12 "Hg10 mi
6:50 AM46 °FSunny.No wind82%30.12 "Hg10 mi
5:50 PM
Thu, May 5
61 °FPassing clouds.9 mph42%30.21 "HgN/A
5:20 PM59 °FPassing clouds.9 mph45%30.21 "HgN/A
4:50 PM61 °FPassing clouds.9 mph45%30.21 "HgN/A
4:20 PM59 °FPassing clouds.8 mph45%30.24 "HgN/A
3:50 PM61 °FPassing clouds.8 mph42%30.24 "HgN/A
3:20 PM61 °FSunny.6 mph48%30.24 "Hg10 mi
2:50 PM61 °FPassing clouds.8 mph42%30.27 "HgN/A
2:20 PM61 °FClear.9 mph42%30.27 "HgN/A
1:50 PM59 °FPassing clouds.10 mph45%30.27 "HgN/A
1:20 PM59 °FScattered clouds.7 mph48%30.27 "HgN/A
Weather by CustomWeather, © 2016

See weather overviewHow to use our weather pages